Weather History for Luverne, MN

Change the Weather History Date:

Friday, March 14, 2014

  Actual Average (KFSD) Record (KFSD)
Temperature  
Mean Temperature 39 °F 32 °F  
Max Temperature 46 °F 42 °F 73 °F (1935)
Min Temperature 32 °F 22 °F -22 °F (1897)
Degree Days  
Heating Degree Days 26 33  
Month to date heating degree days 500  
Since 1 July heating degree days 6350  
Cooling Degree Days 0 0  
Month to date cooling degree days 0  
Year to date cooling degree days 0  
Moisture  
Dew Point 32 °F    
Average Humidity 75    
Maximum Humidity 100    
Minimum Humidity 57    
Precipitation  
Precipitation 0.00 in 0.05 in 0.95 in (1899)
Month to date precipitation 0.57  
Year to date precipitation 1.73  
Snow  
Snow 0.00 in 0.30 in 8.00 in (1899)
Month to date snowfall 4.3  
Since 1 July snowfall 35.8  
Snow Depth -    
Sea Level Pressure  
Sea Level Pressure 29.80 in    
Wind  
Wind Speed 11 mph (NW)    
Max Wind Speed 23 mph    
Max Gust Speed 30 mph    
Visibility 10 miles    
Events      
T = Trace of Precipitation, MM = Missing Value Source: NWS Daily Summary

Daily Weather History Graph

Daily Weather History Graph

Search for Another Location

Airport:

Trip Planner

Search our weather history database for the weather conditions in past years. The results will help you decide how hot, cold, wet, or windy it might be!

Date:

Astronomy

Mar. 14, 2014 Rise Set
Actual Time 7:38 AM CDT 7:29 PM CDT
Civil Twilight 7:10 AM CDT 7:58 PM CDT
Nautical Twilight 6:36 AM CDT 8:31 PM CDT
Astronomical Twilight 6:03 AM CDT 9:05 PM CDT
Moon 5:51 PM CDT (3/14) 6:22 AM CDT (3/14)
Length of Visible Light 12h 48m
Length of Day
11h 51m
Waxing Gibbous, 96% of the Moon is Illuminated
Mar 14
Waxing Gibbous
Mar 16
Full
Mar 23
Last Quarter
Mar 30
New
Apr 7
First Quarter

Hourly Weather History & Observations

Time (CDT) Temp. Windchill Dew Point Humidity Pressure Visibility Wind Dir Wind Speed Gust Speed Precip Events Conditions
12:15 AM 35.6 °F 31.7 °F 32.0 °F 87% 29.59 in 10.0 mi NW 4.6 mph - N/A   Clear
12:35 AM 39.2 °F 33.0 °F 32.0 °F 75% 29.60 in 10.0 mi WNW 9.2 mph - N/A   Clear
12:54 AM 41.0 °F 35.2 °F 32.0 °F 70% 29.61 in 10.0 mi NW 9.2 mph - N/A   Clear
1:15 AM 42.8 °F 37.0 °F 32.0 °F 66% 29.61 in 10.0 mi NNW 10.4 mph - N/A   Clear
1:34 AM 41.0 °F 37.1 °F 32.0 °F 70% 29.61 in 10.0 mi NNW 5.8 mph - N/A   Clear
1:55 AM 41.0 °F 35.2 °F 32.0 °F 70% 29.63 in 10.0 mi NNW 9.2 mph - N/A   Clear
2:15 AM 39.2 °F 33.6 °F 32.0 °F 75% 29.64 in 10.0 mi NNW 8.1 mph - N/A   Clear
2:34 AM 41.0 °F 34.7 °F 32.0 °F 70% 29.65 in 10.0 mi NW 10.4 mph - N/A   Scattered Clouds
2:55 AM 41.0 °F 33.9 °F 32.0 °F 70% 29.65 in 10.0 mi NW 12.7 mph - N/A   Scattered Clouds
3:15 AM 41.0 °F 33.1 °F 32.0 °F 70% 29.66 in 10.0 mi NNW 15.0 mph 20.7 mph N/A   Clear
3:34 AM 39.2 °F 31.2 °F 32.0 °F 75% 29.67 in 10.0 mi NNW 13.8 mph - N/A   Clear
3:55 AM 37.4 °F 28.9 °F 32.0 °F 81% 29.69 in 10.0 mi NW 13.8 mph - N/A   Clear
4:15 AM 37.4 °F 28.9 °F 32.0 °F 81% 29.69 in 10.0 mi NW 13.8 mph 19.6 mph N/A   Scattered Clouds
4:34 AM 37.4 °F 29.8 °F 30.2 °F 75% 29.69 in 10.0 mi NW 11.5 mph - N/A   Scattered Clouds
4:55 AM 37.4 °F 29.3 °F 30.2 °F 75% 29.70 in 10.0 mi NW 12.7 mph 17.3 mph N/A   Clear
5:15 AM 37.4 °F 30.3 °F 30.2 °F 75% 29.71 in 10.0 mi NW 10.4 mph - N/A   Clear
5:35 AM 37.4 °F 29.3 °F 30.2 °F 75% 29.72 in 10.0 mi WNW 12.7 mph 16.1 mph N/A   Clear
5:54 AM 35.6 °F 28.0 °F 30.2 °F 81% 29.72 in 10.0 mi WNW 10.4 mph - N/A   Clear
6:15 AM 35.6 °F 27.1 °F 30.2 °F 81% 29.73 in 10.0 mi WNW 12.7 mph - N/A   Clear
6:34 AM 35.6 °F 27.1 °F 30.2 °F 81% 29.73 in 10.0 mi WNW 12.7 mph - N/A   Clear
6:55 AM 35.6 °F 26.6 °F 30.2 °F 81% 29.73 in 10.0 mi WNW 13.8 mph - N/A   Clear
7:15 AM 35.6 °F 27.1 °F 30.2 °F 81% 29.74 in 10.0 mi WNW 12.7 mph - N/A   Clear
7:35 AM 33.8 °F 24.8 °F 30.2 °F 87% 29.75 in 10.0 mi WNW 12.7 mph - N/A   Clear
7:54 AM 33.8 °F 25.3 °F 30.2 °F 87% 29.75 in 10.0 mi WNW 11.5 mph - N/A   Clear
8:15 AM 35.6 °F 26.2 °F 32.0 °F 87% 29.76 in 10.0 mi WNW 15.0 mph - N/A   Clear
8:35 AM 35.6 °F 26.2 °F 32.0 °F 87% 29.77 in 10.0 mi WNW 15.0 mph - N/A   Clear
8:54 AM 35.6 °F 25.9 °F 32.0 °F 87% 29.78 in 10.0 mi WNW 16.1 mph - N/A   Clear
9:15 AM 35.6 °F 26.2 °F 32.0 °F 87% 29.78 in 10.0 mi WNW 15.0 mph - N/A   Mostly Cloudy
9:35 AM 37.4 °F 28.2 °F 32.0 °F 81% 29.78 in 10.0 mi WNW 16.1 mph 20.7 mph N/A   Scattered Clouds
9:54 AM 37.4 °F 27.8 °F 32.0 °F 81% 29.78 in 10.0 mi WNW 17.3 mph 23.0 mph N/A   Clear
10:15 AM 37.4 °F 27.2 °F 32.0 °F 81% 29.79 in 10.0 mi WNW 19.6 mph 26.5 mph N/A   Clear
10:34 AM 39.2 °F 29.3 °F 32.0 °F 75% 29.79 in 10.0 mi NW 20.7 mph 27.6 mph N/A   Clear
10:55 AM 41.0 °F 31.1 °F 32.0 °F 70% 29.80 in 10.0 mi NW 23.0 mph 29.9 mph N/A   Clear
11:14 AM 41.0 °F 31.6 °F 32.0 °F 70% 29.80 in 10.0 mi WNW 20.7 mph 27.6 mph N/A   Scattered Clouds
11:34 AM 41.0 °F 31.6 °F 32.0 °F 70% 29.81 in 10.0 mi NW 20.7 mph 27.6 mph N/A   Scattered Clouds
11:54 AM 42.8 °F 34.3 °F 32.0 °F 66% 29.82 in 10.0 mi NW 19.6 mph 25.3 mph N/A   Scattered Clouds
12:15 PM 42.8 °F 34.8 °F 32.0 °F 66% 29.83 in 10.0 mi NW 17.3 mph 25.3 mph N/A   Mostly Cloudy
12:34 PM 42.8 °F 35.1 °F 33.8 °F 70% 29.83 in 10.0 mi NW 16.1 mph 24.2 mph N/A   Mostly Cloudy
12:55 PM 44.6 °F 37.8 °F 33.8 °F 66% 29.84 in 10.0 mi WNW 15.0 mph 25.3 mph N/A   Mostly Cloudy
1:14 PM 44.6 °F 37.4 °F 33.8 °F 66% 29.83 in 10.0 mi NNW 16.1 mph 24.2 mph N/A   Mostly Cloudy
1:35 PM 44.6 °F 37.2 °F 33.8 °F 66% 29.84 in 10.0 mi NW 17.3 mph 24.2 mph N/A   Mostly Cloudy
1:54 PM 44.6 °F 36.6 °F 33.8 °F 66% 29.84 in 10.0 mi NW 19.6 mph 23.0 mph N/A   Mostly Cloudy
2:14 PM 46.4 °F 39.2 °F 33.8 °F 62% 29.84 in 10.0 mi NW 18.4 mph 24.2 mph N/A   Mostly Cloudy
2:35 PM 46.4 °F 39.5 °F 33.8 °F 62% 29.84 in 10.0 mi NW 17.3 mph 23.0 mph N/A   Scattered Clouds
2:54 PM 44.6 °F 37.4 °F 33.8 °F 66% 29.84 in 10.0 mi NNW 16.1 mph 25.3 mph N/A   Mostly Cloudy
3:14 PM 44.6 °F 36.9 °F 33.8 °F 66% 29.85 in 10.0 mi NW 18.4 mph 25.3 mph N/A   Mostly Cloudy
3:35 PM 44.6 °F 36.9 °F 32.0 °F 61% 29.85 in 10.0 mi NW 18.4 mph 25.3 mph N/A   Mostly Cloudy
3:54 PM 44.6 °F 36.9 °F 32.0 °F 61% 29.85 in 10.0 mi NW 18.4 mph 26.5 mph N/A   Mostly Cloudy
4:14 PM 44.6 °F 36.6 °F 32.0 °F 61% 29.86 in 10.0 mi NNW 19.6 mph 25.3 mph N/A   Scattered Clouds
4:35 PM 46.4 °F 40.1 °F 33.8 °F 62% 29.85 in 10.0 mi NNW 15.0 mph 19.6 mph N/A   Mostly Cloudy
4:54 PM 46.4 °F 41.1 °F 33.8 °F 62% 29.86 in 10.0 mi NW 11.5 mph 16.1 mph N/A   Scattered Clouds
5:15 PM 46.4 °F 39.8 °F 32.0 °F 57% 29.86 in 10.0 mi NNW 16.1 mph 21.9 mph N/A   Scattered Clouds
5:34 PM 46.4 °F 39.8 °F 32.0 °F 57% 29.86 in 10.0 mi NW 16.1 mph 21.9 mph N/A   Scattered Clouds
5:55 PM 46.4 °F 41.5 °F 32.0 °F 57% 29.87 in 10.0 mi NW 10.4 mph - N/A   Scattered Clouds
6:14 PM 46.4 °F 41.5 °F 32.0 °F 57% 29.88 in 10.0 mi NNW 10.4 mph - N/A   Clear
6:35 PM 44.6 °F 39.2 °F 32.0 °F 61% 29.88 in 10.0 mi NW 10.4 mph - N/A   Clear
6:54 PM 44.6 °F 40.7 °F 32.0 °F 61% 29.88 in 10.0 mi NW 6.9 mph - N/A   Clear
7:15 PM 42.8 °F 40.1 °F 32.0 °F 66% 29.90 in 10.0 mi NNW 4.6 mph - N/A   Clear
7:34 PM 41.0 °F 39.0 °F 32.0 °F 70% 29.90 in 10.0 mi NW 3.5 mph - N/A   Clear
7:55 PM 37.4 °F - 32.0 °F 81% 29.91 in 10.0 mi Calm Calm - N/A   Clear
8:15 PM 37.4 °F - 32.0 °F 81% 29.91 in 10.0 mi Calm Calm - N/A   Clear
8:34 PM 35.6 °F 32.8 °F 32.0 °F 87% 29.92 in 10.0 mi North 3.5 mph - N/A   Clear
8:55 PM 33.8 °F - 32.0 °F 93% 29.92 in 10.0 mi Calm Calm - N/A   Clear
9:15 PM 35.6 °F 31.7 °F 32.0 °F 87% 29.93 in 10.0 mi NE 4.6 mph - N/A   Clear
9:34 PM 35.6 °F 31.7 °F 32.0 °F 87% 29.93 in 10.0 mi ENE 4.6 mph - N/A   Clear
9:55 PM 33.8 °F 26.4 °F 32.0 °F 93% 29.93 in 10.0 mi NE 9.2 mph - N/A   Clear
10:15 PM 33.8 °F 30.8 °F 32.0 °F 93% 29.94 in 7.0 mi ENE 3.5 mph - N/A   Clear
10:34 PM 33.8 °F 27.7 °F 32.0 °F 93% 29.93 in 7.0 mi NE 6.9 mph - N/A   Clear
10:55 PM 33.8 °F 29.6 °F 32.0 °F 93% 29.94 in 7.0 mi ENE 4.6 mph - N/A   Clear
11:14 PM 32.0 °F 28.7 °F 32.0 °F 100% 29.94 in 7.0 mi East 3.5 mph - N/A   Clear
11:35 PM 32.0 °F 27.5 °F 32.0 °F 100% 29.94 in 7.0 mi ENE 4.6 mph - N/A   Clear
11:54 PM 32.0 °F 25.6 °F 32.0 °F 100% 29.92 in 7.0 mi NE 6.9 mph - N/A   Clear